CDT,Max TemperatureF,Mean TemperatureF,Min TemperatureF,Max Dew PointF,MeanDew PointF,Min DewpointF,Max Humidity, Mean Humidity, Min Humidity, Max Sea Level PressureIn, Mean Sea Level PressureIn, Min Sea Level PressureIn, Max VisibilityMiles, Mean VisibilityMiles, Min VisibilityMiles, Max Wind SpeedMPH, Mean Wind SpeedMPH, Max Gust SpeedMPH,PrecipitationIn, CloudCover, Events, WindDirDegrees
2012-8-1,98,82,66,64,61,55,88,50,24,29.95,29.89,29.79,10,10,7,16,7,28,0.00,0,,185
2012-8-2,89,78,66,66,64,61,94,64,38,29.94,29.87,29.83,10,9,3,13,5,18,0.10,1,Rain,73
2012-8-3,96,82,69,68,62,52,78,54,22,29.90,29.81,29.68,10,10,10,21,6,31,0.10,0,Rain,165
2012-8-4,82,73,64,66,57,43,88,61,25,30.08,29.95,29.75,10,10,7,16,9,24,0.42,3,Rain,328
2012-8-5,82,68,55,55,52,43,88,57,25,30.27,30.18,30.08,10,10,7,9,4,,0.00,0,,359
2012-8-6,95,76,57,63,54,46,88,49,19,30.14,30.04,29.93,10,10,10,16,6,21,0.00,0,,201
2012-8-7,93,78,62,64,61,52,94,57,24,29.99,29.97,29.95,10,10,7,13,3,17,0.00,0,,75
2012-8-8,89,79,69,66,62,52,78,57,27,30.02,29.95,29.91,10,10,7,15,6,20,0.00,1,Rain,73
2012-8-9,86,74,62,61,56,48,88,58,29,30.09,30.05,30.01,10,10,10,16,7,24,0.00,0,,11
2012-8-10,73,63,53,55,53,50,94,70,47,30.17,30.12,30.08,10,10,10,9,3,,0.03,0,,54
2012-8-11,73,58,44,59,53,45,100,74,50,30.12,30.05,29.97,10,10,10,12,2,16,0.00,1,Rain,139
2012-8-12,71,66,60,63,58,55,94,80,64,30.04,29.93,29.88,10,10,4,13,7,20,0.00,7,Rain,86
2012-8-13,80,68,55,61,55,52,94,69,37,30.13,30.06,30.00,10,10,7,10,6,,0.00,3,,355
2012-8-14,82,65,48,61,54,48,100,67,32,30.02,29.93,29.83,10,10,7,16,3,23,0.00,1,,200
2012-8-15,87,74,62,68,61,57,88,67,43,29.87,29.77,29.69,10,10,10,21,11,28,0.00,3,,201
2012-8-16,73,60,46,59,49,41,94,63,31,30.12,30.04,29.88,10,10,5,20,11,25,0.12,2,Rain,344
2012-8-17,75,56,37,48,42,37,100,64,27,30.16,30.11,30.04,10,10,7,8,1,,0.00,0,,7
2012-8-18,62,52,42,55,49,41,100,92,77,30.11,30.05,30.01,10,9,0,8,2,,0.31,5,Fog-Rain,81
2012-8-19,78,60,42,55,50,43,100,76,36,30.10,30.05,29.99,10,9,1,13,2,16,0.00,2,,341
2012-8-20,78,62,46,57,51,46,100,71,34,30.04,30.01,29.97,10,10,4,7,1,,0.00,1,,42
2012-8-21,84,65,46,57,52,46,100,65,33,30.06,30.01,29.95,10,10,10,14,3,18,0.00,0,,151
2012-8-22,89,74,59,59,55,52,82,53,31,29.96,29.90,29.84,10,10,10,24,8,33,0.00,0,,192
2012-8-23,87,76,64,66,60,52,83,57,46,29.90,29.85,29.81,10,10,10,22,10,31,0.00,0,,196
2012-8-24,84,74,64,66,64,63,94,69,48,29.89,29.86,29.83,10,10,5,17,8,25,0.00,4,Rain,192
2012-8-25,71,68,64,66,64,63,100,90,78,29.94,29.89,29.86,10,7,2,13,8,24,0.27,8,Rain,175
2012-8-26,82,71,59,66,64,57,100,83,51,30.09,30.01,29.93,10,6,0,7,1,,0.00,5,Fog,50
2012-8-27,87,69,51,66,61,52,100,75,43,30.17,30.11,30.06,10,7,0,12,2,16,0.00,0,Fog,172
2012-8-28,93,76,59,63,60,55,100,61,31,30.12,30.00,29.88,10,10,7,22,6,32,0.00,0,Rain,182
2012-8-29,98,82,66,59,55,52,78,46,21,29.92,29.85,29.77,10,10,10,20,9,25,0.00,0,,195
2012-8-30,98,83,68,64,56,50,78,45,19,29.95,29.83,29.80,10,10,10,20,10,25,0.00,0,,211
2012-8-31,87,74,60,61,57,52,88,59,35,30.06,30.01,29.96,10,10,10,15,5,24,0.00,0,,72